AF5AA Weather Reports


Display with metric or nautical units.
time (UTC)temp
F
wind
direction
speed
MPH
gust
MPH
rain 1hr
in
rain 24hr
in
rain mn
in
humidity
%
barometer
mb
20260507081721 55 95 0.0 0.0 0.00 0.00 0.00 87 1015.3
20260507081217 55 109 0.0 0.0 0.00 0.00 0.00 88 1015.5
20260507080714 55 98 0.0 1.0 0.00 0.00 0.00 88 1015.5
20260507080210 55 110 0.0 0.0 0.00 0.00 0.00 89 1015.1
20260507075705 55 109 0.0 0.0 0.00 0.00 0.00 89 1015.3
20260507075202 55 99 0.0 0.0 0.00 0.00 0.00 89 1015.2
20260507074658 55 91 0.0 0.0 0.00 0.00 0.00 90 1015.1
20260507074157 55 98 0.0 0.0 0.00 0.00 0.00 90 1015.3
20260507073653 55 98 0.0 0.0 0.00 0.00 0.00 89 1015.6
20260507073149 55 106 0.0 0.0 0.00 0.00 0.00 90 1015.6
20260507072647 55 83 1.0 1.0 0.00 0.00 0.00 89 1015.4
20260507072144 55 100 0.0 1.0 0.00 0.00 0.00 90 1015.9
20260507071642 55 102 0.0 0.0 0.00 0.00 0.00 89 1015.7
20260507071138 55 93 0.0 0.0 0.00 0.00 0.00 89 1016.1
20260507070635 55 102 0.0 0.0 0.00 0.00 0.00 90 1016.3
20260507070126 55 101 1.0 1.0 0.00 0.00 0.00 89 1016.2
20260507065622 55 97 0.0 0.0 0.00 0.00 0.00 89 1016.2
20260507065119 55 77 0.0 0.0 0.00 0.00 0.00 90 1016.1
20260507064617 56 95 0.0 0.0 0.00 0.00 0.00 90 1016.1
20260507064116 55 114 0.0 0.0 0.00 0.00 0.00 90 1016.2
20260507063613 56 98 0.0 0.0 0.00 0.00 0.00 90 1016.5
20260507063110 56 101 0.0 0.0 0.00 0.00 0.00 91 1016.2
20260507062606 55 103 0.0 0.0 0.00 0.00 0.00 91 1016.4
20260507062104 55 167 0.0 1.0 0.00 0.00 0.00 90 1016.5
20260507061601 56 105 0.0 0.0 0.00 0.00 0.00 91 1016.2
20260507061100 56 101 0.0 0.0 0.00 0.00 0.00 90 1016.6
20260507060557 56 93 0.0 0.0 0.00 0.00 0.00 90 1016.5
20260507060053 55 83 0.0 0.0 0.00 0.00 0.00 91 1016.0
20260507055548 55 74 0.0 0.0 0.00 0.00 0.00 90 1016.2
20260507055045 55 196 2.0 3.0 0.00 0.00 0.00 90 1016.4
20260507054541 56 137 0.0 1.0 0.00 0.00 0.00 90 1016.0
20260507054038 56 125 1.0 3.0 0.00 0.00 0.00 91 1015.9
20260507053536 56 119 0.0 0.0 0.00 0.00 0.00 91 1016.0
20260507053035 56 88 0.0 0.0 0.00 0.00 0.00 91 1016.1
20260507052532 56 92 0.0 0.0 0.00 0.00 0.00 92 1016.1
20260507052028 56 70 0.0 1.0 0.00 0.00 0.00 92 1016.4
20260507051527 56 107 0.0 0.0 0.00 0.00 0.00 91 1016.3
20260507051023 56 67 1.0 1.0 0.00 0.00 0.00 91 1016.3
20260507050519 56 135 0.0 0.0 0.00 0.00 0.00 91 1016.1
20260507050016 57 76 0.0 0.0 0.00 0.00 0.00 90 1016.3
20260507045513 57 73 0.0 1.0 0.00 0.00 0.00 91 1016.5
20260507045010 57 84 0.0 0.0 0.00 0.00 0.00 90 1016.5
20260507044506 57 117 1.0 1.0 0.00 0.00 0.00 91 1016.5
20260507044003 57 99 0.0 0.0 0.00 0.00 0.00 91 1016.0
20260507043459 57 111 0.0 0.0 0.00 0.00 0.00 91 1016.0
20260507042955 57 80 0.0 0.0 0.00 0.00 0.00 91 1016.2
20260507042452 57 349 1.0 1.0 0.00 0.00 0.00 91 1015.7
20260507041948 57 290 1.0 2.0 0.00 0.00 0.00 91 1015.8
20260507041445 57 91 0.0 0.0 0.00 0.00 0.00 91 1016.0
20260507040942 57 41 0.0 1.0 0.00 0.00 0.00 91 1016.0
20260507040438 57 108 0.0 0.0 0.00 0.00 0.00 91 1015.5
20260507035934 58 84 0.0 0.0 0.00 0.00 0.00 91 1015.6
20260507035431 58 97 1.0 2.0 0.00 0.00 0.00 91 1015.9
20260507034927 58 113 0.0 0.0 0.00 0.00 0.00 91 1015.8
20260507034424 58 76 0.0 0.0 0.00 0.00 0.00 92 1015.4
20260507033922 58 86 0.0 0.0 0.00 0.00 0.00 92 1015.4
20260507033420 58 84 0.0 0.0 0.00 0.00 0.00 92 1015.3
20260507032917 58 357 0.0 1.0 0.00 0.00 0.00 92 1015.5
20260507032414 58 100 0.0 0.0 0.00 0.00 0.00 92 1015.4
20260507031910 58 130 0.0 0.0 0.00 0.00 0.00 92 1015.2
20260507031406 59 70 0.0 1.0 0.00 0.00 0.00 93 1014.8
20260507030903 59 42 1.0 3.0 0.00 0.00 0.00 93 1015.0
20260507030401 59 87 0.0 1.0 0.00 0.00 0.00 94 1014.8
20260507025857 59 82 0.0 0.0 0.00 0.00 0.00 94 1014.9
20260507025355 59 144 0.0 1.0 0.00 0.00 0.00 94 1014.6
20260507024853 59 59 0.0 1.0 0.00 0.00 0.00 94 1014.5
20260507024350 59 70 0.0 1.0 0.00 0.00 0.00 94 1014.3
20260507023845 60 161 0.0 1.0 0.00 0.00 0.00 94 1014.3
20260507023342 60 97 0.0 0.0 0.00 0.00 0.00 94 1014.2
20260507022840 60 99 0.0 0.0 0.00 0.00 0.00 95 1014.0
20260507022336 60 111 0.0 0.0 0.00 0.00 0.00 94 1014.4
20260507021832 60 95 0.0 0.0 0.00 0.00 0.00 94 1014.2
20260507021327 60 99 0.0 0.0 0.00 0.00 0.00 94 1014.0
20260507020826 60 110 0.0 0.0 0.00 0.00 0.00 95 1013.9
20260507020322 60 88 0.0 0.0 0.00 0.00 0.00 94 1014.0
20260507015819 60 105 0.0 0.0 0.00 0.00 0.00 94 1013.5
20260507015317 60 124 1.0 1.0 0.00 0.00 0.00 94 1012.6
20260507014813 61 105 0.0 0.0 0.00 0.00 0.00 95 1012.9
20260507014310 61 82 0.0 0.0 0.00 0.00 0.00 95 1012.9
20260507013806 61 97 0.0 0.0 0.00 0.00 0.00 95 1013.0
20260507013304 61 110 0.0 0.0 0.00 0.00 0.00 95 1013.0
20260507012801 61 71 0.0 0.0 0.00 0.00 0.00 95 1012.8
20260507012256 61 103 0.0 0.0 0.00 0.00 0.00 95 1012.9
20260507011754 61 45 0.0 0.0 0.00 0.00 0.00 95 1012.5
20260507011251 61 122 0.0 0.0 0.00 0.00 0.00 95 1012.8
20260507010750 61 93 0.0 0.0 0.00 0.00 0.00 95 1012.5
20260507010246 61 120 0.0 0.0 0.00 0.00 0.00 95 1012.6
20260507005744 61 80 0.0 0.0 0.00 0.00 0.00 95 1012.3
20260507005240 61 113 0.0 0.0 0.00 0.00 0.00 95 1012.3
20260507004737 61 98 0.0 0.0 0.00 0.00 0.00 95 1012.1
20260507004235 62 110 0.0 0.0 0.00 0.00 0.00 95 1012.3
20260507003730 62 96 0.0 0.0 0.00 0.00 0.00 95 1011.9
20260507003226 62 97 0.0 0.0 0.00 0.00 0.00 95 1012.3
20260507002722 61 107 0.0 0.0 0.00 0.00 0.00 94 1012.1
20260507002219 62 93 0.0 0.0 0.00 0.00 0.00 94 1011.9
20260507001715 62 286 1.0 2.0 0.00 0.00 0.00 94 1011.8
20260507001213 62 101 0.0 0.0 0.00 0.00 0.00 94 1012.3
20260507000709 62 95 0.0 1.0 0.00 0.00 0.00 93 1012.1
20260507000205 62 92 0.0 0.0 0.00 0.00 0.00 93 1012.6
20260506235702 62 131 1.0 1.0 0.00 0.00 0.00 93 1012.4
20260506235157 62 80 1.0 1.0 0.00 0.00 0.00 93 1011.8
20260506234654 62 0 0.0 1.0 0.00 0.00 0.00 93 1011.9
20260506234151 62 97 0.0 0.0 0.00 0.00 0.00 93 1012.1
20260506233649 62 104 0.0 0.0 0.00 0.00 0.00 93 1012.0
20260506233145 62 85 0.0 0.0 0.00 0.00 0.00 93 1011.8
20260506232641 62 99 0.0 0.0 0.00 0.00 0.00 93 1011.8
20260506232137 62 108 0.0 0.0 0.00 0.00 0.00 93 1012.0
20260506231634 62 65 0.0 0.0 0.00 0.00 0.00 92 1012.2
20260506231133 62 126 0.0 1.0 0.00 0.00 0.00 92 1012.1
20260506230629 62 77 0.0 0.0 0.00 0.00 0.00 92 1011.8
20260506230126 62 100 0.0 0.0 0.00 0.00 0.00 91 1011.7
20260506225623 62 102 0.0 1.0 0.00 0.00 0.00 92 1011.6
20260506225119 62 101 0.0 0.0 0.00 0.00 0.00 92 1011.7
20260506224616 62 72 0.0 0.0 0.00 0.00 0.00 91 1011.7
20260506224113 62 113 0.0 0.0 0.00 0.00 0.00 91 1011.8
20260506223609 62 103 0.0 0.0 0.00 0.00 0.00 91 1011.7
20260506223105 62 79 0.0 0.0 0.00 0.00 0.00 91 1011.5
20260506222602 62 100 0.0 0.0 0.00 0.00 0.00 91 1011.4
20260506222058 63 96 0.0 0.0 0.00 0.00 0.00 91 1011.6
20260506221556 63 135 1.0 1.0 0.00 0.00 0.00 91 1011.5
20260506221054 63 122 1.0 2.0 0.00 0.00 0.00 90 1011.3
20260506220550 63 89 0.0 0.0 0.00 0.00 0.00 90 1011.5
20260506220045 63 114 0.0 0.0 0.00 0.00 0.00 89 1010.9
20260506215543 64 64 0.0 0.0 0.00 0.00 0.00 89 1011.3
20260506215038 64 64 0.0 1.0 0.00 0.00 0.00 88 1011.3
20260506214535 64 75 0.0 0.0 0.00 0.00 0.00 88 1011.2
20260506214033 64 58 1.0 1.0 0.00 0.00 0.00 88 1011.1
20260506213531 64 92 0.0 0.0 0.00 0.00 0.00 88 1011.3
20260506213027 64 120 0.0 0.0 0.00 0.00 0.00 88 1011.4
20260506212524 64 95 0.0 0.0 0.00 0.00 0.00 88 1011.5
20260506212019 64 105 0.0 0.0 0.00 0.00 0.00 88 1011.5
20260506211515 64 167 0.0 1.0 0.00 0.00 0.00 87 1011.7
20260506211013 65 113 0.0 0.0 0.00 0.00 0.00 86 1011.6
20260506210509 65 113 0.0 0.0 0.00 0.00 0.00 85 1011.4
20260506210006 66 116 0.0 0.0 0.00 0.00 0.00 85 1011.1
20260506205502 65 91 0.0 0.0 0.00 0.00 0.00 86 1011.0
20260506204958 65 84 1.0 1.0 0.00 0.00 0.00 86 1010.9
20260506204456 65 108 0.0 0.0 0.00 0.00 0.00 85 1010.9
20260506203953 65 101 0.0 0.0 0.00 0.00 0.00 86 1010.6
20260506203450 65 134 1.0 1.0 0.00 0.00 0.00 84 1010.7
20260506202947 65 123 0.0 0.0 0.00 0.00 0.00 85 1010.7
20260506202444 64 116 0.0 1.0 0.00 0.00 0.00 86 1010.6
20260506201940 65 74 0.0 0.0 0.00 0.00 0.00 86 1011.1
20260506201438 65 103 0.0 1.0 0.00 0.00 0.00 85 1011.3
20260506200935 65 146 0.0 0.0 0.00 0.00 0.00 85 1010.9
20260506200431 64 76 0.0 0.0 0.00 0.00 0.00 86 1011.2
20260506195927 65 131 0.0 0.0 0.00 0.00 0.00 85 1011.3
20260506195425 65 113 0.0 0.0 0.00 0.00 0.00 84 1011.2
20260506194921 65 45 1.0 1.0 0.00 0.00 0.00 84 1011.3
20260506194419 65 92 0.0 0.0 0.00 0.00 0.00 83 1011.3
20260506193915 65 132 0.0 0.0 0.00 0.00 0.00 84 1011.6
20260506193412 65 108 0.0 0.0 0.00 0.00 0.00 84 1011.5
20260506192909 65 101 1.0 1.0 0.00 0.00 0.00 84 1011.6
20260506192406 65 19 0.0 1.0 0.00 0.00 0.00 84 1011.6
20260506191903 65 142 1.0 1.0 0.00 0.00 0.00 84 1011.4
20260506191359 65 116 0.0 0.0 0.00 0.00 0.00 83 1011.7
20260506190856 65 125 0.0 0.0 0.00 0.00 0.00 83 1011.4
20260506190352 65 99 0.0 0.0 0.00 0.00 0.00 84 1011.3
20260506185849 66 114 0.0 0.0 0.00 0.00 0.00 82 1011.0
20260506185346 66 53 0.0 1.0 0.00 0.00 0.00 81 1010.8
20260506184843 66 98 0.0 0.0 0.00 0.00 0.00 82 1010.7
20260506184340 66 32 1.0 2.0 0.00 0.00 0.00 82 1010.7
20260506183838 65 110 0.0 0.0 0.00 0.00 0.00 83 1010.6
20260506183333 66 93 0.0 0.0 0.00 0.00 0.00 82 1010.7
20260506182831 66 129 0.0 0.0 0.00 0.00 0.00 81 1010.3
20260506182327 67 104 0.0 1.0 0.00 0.00 0.00 82 1010.1
20260506181825 66 46 1.0 1.0 0.00 0.00 0.00 81 1010.4
20260506181323 66 113 1.0 1.0 0.00 0.00 0.00 82 1010.8
20260506180820 65 85 0.0 0.0 0.00 0.00 0.00 83 1011.1
20260506180316 64 74 0.0 1.0 0.00 0.00 0.00 84 1011.1
20260506175812 64 170 0.0 1.0 0.00 0.00 0.00 84 1012.3
20260506175309 63 130 0.0 1.0 0.00 0.00 0.00 84 1011.7
20260506174806 63 33 1.0 1.0 0.00 0.00 0.00 85 1011.6
20260506174303 62 110 0.0 0.0 0.00 0.00 0.00 86 1012.0
20260506173801 62 102 0.0 0.0 0.00 0.00 0.00 85 1012.2
20260506173258 62 115 0.0 0.0 0.00 0.00 0.00 85 1012.2
20260506172754 62 123 1.0 1.0 0.00 0.00 0.00 86 1012.1
20260506172251 62 93 0.0 0.0 0.00 0.00 0.00 86 1013.0
20260506171749 62 138 0.0 0.0 0.00 0.00 0.00 86 1013.2
20260506171246 61 13 1.0 1.0 0.00 0.00 0.00 86 1013.1
20260506170743 61 138 0.0 1.0 0.00 0.00 0.00 87 1013.3
20260506170239 62 183 0.0 1.0 0.00 0.00 0.00 87 1013.5
20260506165738 61 118 0.0 0.0 0.00 0.00 0.00 87 1013.4
20260506165235 61 180 0.0 0.0 0.00 0.00 0.00 88 1013.5
20260506164732 61 191 1.0 2.0 0.00 0.00 0.00 88 1013.8
20260506164229 61 96 0.0 0.0 0.00 0.00 0.00 88 1013.9
20260506163726 62 99 0.0 0.0 0.00 0.00 0.00 88 1014.1
20260506163220 62 101 0.0 0.0 0.00 0.00 0.00 88 1014.0
20260506162717 62 93 0.0 0.0 0.00 0.00 0.00 88 1013.7
20260506162215 62 148 0.0 0.0 0.00 0.00 0.00 88 1013.6
20260506161712 62 82 0.0 1.0 0.00 0.00 0.00 87 1013.6
20260506161209 62 67 0.0 0.0 0.00 0.00 0.00 88 1013.3
20260506160706 62 80 0.0 0.0 0.00 0.00 0.00 88 1013.3
20260506160203 62 39 0.0 1.0 0.00 0.00 0.00 88 1012.8
20260506155701 62 82 0.0 0.0 0.00 0.00 0.00 87 1012.6
20260506155158 62 79 0.0 0.0 0.00 0.00 0.00 88 1012.6
20260506153306 62 109 0.0 0.0 0.00 0.00 0.00 87 1012.0
20260506152803 62 59 1.0 1.0 0.00 0.00 0.00 87 1011.7
20260506152300 62 118 0.0 0.0 0.00 0.00 0.00 88 1011.7
20260506151759 62 99 0.0 0.0 0.00 0.00 0.00 88 1011.8
20260506151255 62 64 0.0 0.0 0.00 0.00 0.00 89 1011.8
20260506150751 62 108 0.0 0.0 0.00 0.00 0.00 89 1012.1
20260506150249 62 116 0.0 0.0 0.00 0.00 0.00 89 1011.9
20260506145746 62 105 0.0 0.0 0.00 0.00 0.00 89 1012.0
20260506145242 63 114 0.0 0.0 0.00 0.00 0.00 89 1011.7
20260506144740 63 144 0.0 0.0 0.00 0.00 0.00 88 1011.6
20260506144237 63 75 1.0 1.0 0.00 0.00 0.00 89 1011.4
20260506143734 63 112 0.0 1.0 0.00 0.00 0.00 89 1011.3
20260506143231 63 109 0.0 1.0 0.00 0.00 0.00 89 1011.1
20260506142730 63 75 0.0 0.0 0.00 0.00 0.00 89 1011.1
20260506142227 64 53 1.0 1.0 0.00 0.00 0.00 88 1011.0
20260506141725 64 90 0.0 1.0 0.00 0.00 0.00 88 1011.2
20260506141224 64 123 0.0 0.0 0.00 0.00 0.00 88 1011.0
20260506140721 64 68 0.0 0.0 0.00 0.00 0.00 88 1010.8
20260506140217 64 166 0.0 1.0 0.00 0.00 0.00 89 1010.8
20260506135714 65 302 0.0 1.0 0.00 0.00 0.00 89 1010.8
20260506135211 65 334 1.0 2.0 0.00 0.00 0.00 88 1010.7
20260506134707 66 107 0.0 0.0 0.00 0.00 0.00 88 1010.6
20260506134203 67 90 0.0 0.0 0.00 0.00 0.00 87 1010.7
20260506133701 67 88 0.0 0.0 0.00 0.00 0.00 88 1010.5
20260506133157 68 91 0.0 1.0 0.00 0.00 0.00 87 1010.4
20260506132655 69 103 0.0 1.0 0.00 0.00 0.00 86 1010.2
20260506132151 70 116 0.0 0.0 0.00 0.00 0.00 87 1010.0
20260506131649 72 65 1.0 1.0 0.00 0.00 0.00 88 1010.2
20260506131145 74 55 2.0 2.0 0.00 0.00 0.00 97 1009.9
20260506130642 74 102 0.0 0.0 0.00 0.00 0.00 97 1009.8
20260506130140 74 102 0.0 0.0 0.00 0.00 0.00 97 1009.7
20260506125638 74 102 0.0 0.0 0.00 0.00 0.00 97 1009.7
20260506125135 74 102 0.0 0.0 0.00 0.00 0.00 97 1009.6
20260506124633 74 102 0.0 0.0 0.00 0.00 0.00 97 1009.6
20260506124130 74 102 0.0 0.0 0.00 0.00 0.00 97 1009.4
20260506123628 74 102 0.0 0.0 0.00 0.00 0.00 97 1009.5
20260506123127 74 102 0.0 0.0 0.00 0.00 0.00 97 1009.4
20260506122622 74 102 0.0 0.0 0.00 0.00 0.00 97 1009.5
20260506122121 74 102 0.0 0.0 0.00 0.00 0.00 97 1009.4
20260506121618 74 105 0.0 0.0 0.00 0.00 0.00 97 1009.2
20260506121114 74 100 0.0 0.0 0.00 0.00 0.00 97 1009.4
20260506120612 74 100 0.0 0.0 0.00 0.00 0.00 97 1009.4
20260506120109 74 99 0.0 0.0 0.00 0.00 0.00 96 1009.2
20260506115608 74 105 0.0 0.0 0.00 0.00 0.00 96 1009.2
20260506115106 74 113 0.0 0.0 0.00 0.00 0.00 96 1008.9
20260506114602 74 113 0.0 0.0 0.00 0.00 0.00 96 1008.9
20260506114101 74 113 0.0 0.0 0.00 0.00 0.00 96 1008.9
20260506113558 74 105 0.0 0.0 0.00 0.00 0.00 96 1008.9
20260506113055 74 105 0.0 0.0 0.00 0.00 0.00 96 1009.0
20260506112552 74 101 0.0 0.0 0.00 0.00 0.00 95 1008.7
20260506112049 74 98 0.0 0.0 0.00 0.00 0.00 95 1008.6
20260506111547 74 107 0.0 0.0 0.00 0.00 0.00 95 1008.7
20260506111044 74 138 0.0 0.0 0.00 0.00 0.00 95 1008.5
20260506110542 74 111 0.0 0.0 0.00 0.00 0.00 95 1008.5
20260506110039 74 112 0.0 0.0 0.00 0.00 0.00 95 1008.5
20260506105535 74 108 0.0 0.0 0.00 0.00 0.00 95 1008.3
20260506105032 74 115 0.0 0.0 0.00 0.00 0.00 95 1008.4
20260506104530 74 115 0.0 0.0 0.00 0.00 0.00 95 1008.3
20260506104028 74 112 0.0 0.0 0.00 0.00 0.00 95 1008.2
20260506103525 74 103 0.0 0.0 0.00 0.00 0.00 95 1007.9
20260506103021 74 111 0.0 0.0 0.00 0.00 0.00 95 1007.9
20260506102520 74 112 0.0 0.0 0.00 0.00 0.00 95 1008.0
20260506102017 74 117 0.0 0.0 0.00 0.00 0.00 95 1008.1
20260506101513 74 105 0.0 0.0 0.00 0.00 0.00 95 1008.1
20260506101011 74 105 0.0 0.0 0.00 0.00 0.00 95 1007.9
20260506100509 74 113 0.0 0.0 0.00 0.00 0.00 95 1007.9
20260506100007 74 112 0.0 0.0 0.00 0.00 0.00 95 1008.1
20260506095505 74 112 0.0 0.0 0.00 0.00 0.00 95 1007.9
20260506095001 74 112 0.0 0.0 0.00 0.00 0.00 95 1008.1
20260506094459 74 110 0.0 0.0 0.00 0.00 0.00 95 1008.1
20260506093956 74 110 0.0 0.0 0.00 0.00 0.00 95 1007.9
20260506093455 74 100 0.0 0.0 0.00 0.00 0.00 95 1007.9
20260506092952 74 109 0.0 1.0 0.00 0.00 0.00 95 1007.8
20260506092450 74 116 0.0 0.0 0.00 0.00 0.00 95 1007.9
20260506091946 74 136 0.0 0.0 0.00 0.00 0.00 94 1007.7
20260506091444 74 111 0.0 0.0 0.00 0.00 0.00 94 1007.8
20260506090941 75 111 0.0 0.0 0.00 0.00 0.00 94 1007.7
20260506090439 75 114 0.0 0.0 0.00 0.00 0.00 93 1007.7
20260506085935 75 108 0.0 0.0 0.00 0.00 0.00 93 1007.6
20260506085432 75 119 0.0 0.0 0.00 0.00 0.00 93 1007.6
20260506084928 75 106 0.0 1.0 0.00 0.00 0.00 93 1007.8
20260506084426 75 115 0.0 0.0 0.00 0.00 0.00 93 1007.6
20260506083921 75 97 0.0 0.0 0.00 0.00 0.00 93 1007.5
20260506083419 75 109 0.0 0.0 0.00 0.00 0.00 93 1007.6
20260506082916 75 119 0.0 0.0 0.00 0.00 0.00 93 1007.8
20260506082414 75 101 1.0 1.0 0.00 0.00 0.00 94 1007.7
20260506081909 75 109 0.0 0.0 0.00 0.00 0.00 94 1007.8